Theta_e
313 316 317 317 319 321 325 327 327 328 328 329 330 331 331 332 331 331 331 329 328 329 328 328 329 330 332 331 330 332 337 338 339 340 343 343 338 336 334 333 333 334 335 336
314 317 319 317 317 318 320 323 325 327 326 328 329 330 331 332 332 331 331 329 329 328 331 331 330 333 333 332 332 335 336 337 339 340 341 338 336 335 334 333 335 334 335 334
314 316 317 318 318 318 320 321 323 324 325 326 327 329 331 331 331 331 329 329 329 329 327 327 330 333 334 334 334 335 336 338 338 340 337 336 334 335 334 335 335 332 333 332
314 315 315 318 319 319 321 320 320 322 323 326 325 329 332 331 332 332 331 330 329 328 329 330 330 336 336 336 335 337 337 337 337 337 336 335 335 333 333 332 334 334 335 333
310 314 316 316 318 319 320 320 321 322 323 325 325 327 329 330 330 329 330 328 328 328 330 331 336 338 338 338 338 339 338 334 338 335 336 335 334 333 333 333 332 332 331 330
310 310 313 317 316 318 320 320 320 322 324 327 328 327 328 329 330 329 330 328 328 331 330 330 338 339 339 339 339 339 337 338 337 335 336 335 332 334 333 333 333 333 331 328
313 311 311 313 316 317 318 323 324 324 324 326 326 327 328 329 328 329 330 329 329 330 331 337 339 339 338 338 339 339 338 338 335 336 337 334 335 328 328 330 332 330 332 329
316 317 311 312 314 318 319 322 324 324 325 325 324 327 328 329 328 328 330 329 330 330 336 338 338 338 338 339 339 338 338 338 337 337 335 334 334 333 333 333 332 329 330 328
315 316 316 312 314 317 319 319 322 325 324 324 326 327 328 329 330 331 330 330 331 335 337 338 337 337 338 338 338 337 338 337 337 335 334 333 334 334 335 332 330 329 328 327
311 314 315 317 313 315 319 320 321 324 325 327 326 328 330 332 333 331 332 332 330 336 337 337 337 337 338 338 337 338 337 337 335 334 333 333 330 332 331 331 330 330 329 331
312 314 316 318 315 315 319 319 321 325 324 326 328 328 331 334 332 330 331 329 330 337 337 337 337 337 337 337 337 337 337 335 334 333 332 331 330 332 332 330 331 330 329 330
313 316 318 317 318 316 319 320 322 324 327 326 326 328 331 329 329 330 331 328 334 336 337 337 337 337 337 337 337 336 335 333 333 333 332 331 330 333 331 330 330 329 328 329
313 317 318 318 319 320 320 319 322 325 328 327 326 328 330 328 328 330 333 329 335 336 336 336 336 336 337 337 336 334 333 333 332 331 331 330 330 332 331 332 331 330 329 329
311 314 316 320 321 322 323 321 321 324 326 326 328 328 328 328 331 333 335 335 336 336 336 336 336 336 336 336 334 332 331 331 331 330 330 331 331 332 331 331 330 330 329 329
311 315 315 314 315 318 320 323 321 323 326 327 328 328 328 331 333 336 337 337 336 336 336 336 336 336 336 335 331 330 330 330 330 329 332 331 332 331 331 331 331 330 328 329
311 316 317 316 314 315 318 320 322 322 324 327 328 329 331 333 332 335 335 336 336 336 335 335 336 336 336 333 330 329 329 329 328 330 332 332 333 333 331 332 332 330 329 330
312 316 318 318 315 316 319 322 323 324 324 327 329 330 330 329 327 334 334 335 335 335 335 335 335 335 335 332 328 329 330 329 328 330 333 332 331 331 331 331 331 329 329 329
313 314 317 319 317 318 320 323 324 324 324 327 326 325 327 328 327 332 334 334 334 334 334 334 335 335 334 331 328 329 329 328 329 330 333 333 331 331 331 331 331 327 326 328
313 313 318 320 321 318 321 326 326 323 327 328 327 324 324 325 332 333 332 334 334 334 335 334 335 335 334 330 328 328 329 327 329 330 332 333 332 331 332 331 331 328 329 327
312 313 317 319 323 326 328 326 326 326 332 327 329 329 330 329 328 333 330 331 332 335 335 335 335 335 334 330 328 328 328 327 328 329 332 331 332 331 332 332 330 330 330 330
312 315 318 318 322 319 322 323 325 328 329 326 327 327 328 330 329 329 329 330 330 333 335 335 335 336 334 330 328 328 328 326 328 327 331 331 331 332 333 331 330 330 330 330
318 317 319 318 321 322 317 322 328 326 325 325 326 326 327 327 327 328 329 329 331 331 336 335 336 336 335 330 328 328 328 326 328 327 328 330 331 331 332 332 331 331 330 329
319 316 319 322 322 318 318 319 320 321 322 323 324 325 326 328 329 330 330 330 331 332 334 336 336 337 335 331 328 328 328 326 327 327 327 330 330 331 329 333 331 331 329 330
314 314 317 319 314 316 318 318 318 319 320 320 321 324 325 326 328 331 332 332 332 332 332 336 336 337 336 332 329 328 328 326 326 327 327 330 329 331 328 334 330 329 333 332
313 314 316 316 314 314 314 315 317 318 319 319 320 321 324 325 327 330 333 334 334 333 332 335 337 337 337 333 329 328 328 327 325 328 327 329 329 330 327 331 332 332 330 330
312 314 315 315 314 314 314 314 315 317 319 318 318 320 323 324 326 327 331 335 336 334 334 335 336 337 337 334 330 328 328 327 326 327 328 328 331 329 327 327 330 329 330 327
Wind_Speed
26 16 24 40 30 29 27 31 33 29 27 28 26 25 28 24 26 26 28 23 29 37 33 25 24 32 17 21 24 25 23 27 29 23 22 22 22 22 20 17 14 15 16 18
19 28 38 22 32 31 34 32 30 29 28 24 23 26 26 22 22 26 26 26 26 32 26 22 23 17 16 17 18 19 20 23 26 23 21 21 21 14 13 13 14 16 16 18
23 37 22 29 30 30 31 31 28 31 25 27 24 26 25 24 27 27 28 32 25 25 33 40 25 15 16 13 13 14 17 23 24 22 20 16 17 12 16 16 13 17 17 16
24 26 32 30 33 30 29 28 29 28 23 20 19 19 25 20 21 20 25 25 26 26 35 32 20 19 15 11 12 15 20 20 22 18 19 21 17 15 12 10 10 8 8 16
34 22 27 31 37 29 34 21 27 28 25 21 23 14 29 17 17 16 13 20 25 27 27 15 19 20 14 14 15 17 19 22 19 23 17 18 14 10 6 6 10 14 17 16
29 33 28 29 26 32 26 26 29 26 19 19 26 19 29 19 19 17 16 24 26 21 22 23 21 20 19 17 18 19 21 21 22 22 15 13 11 8 9 8 8 11 15 10
24 28 31 29 29 29 31 23 17 19 17 21 17 19 23 21 19 18 18 19 22 18 21 29 26 23 21 21 21 22 24 21 20 16 14 13 11 12 10 7 9 11 8 7
13 19 28 24 33 27 29 25 16 25 17 19 21 26 20 21 21 25 20 14 18 24 22 26 23 24 24 24 23 22 23 18 17 14 11 9 6 2 2 9 8 6 5 4
7 15 27 30 29 28 30 28 31 22 21 19 16 18 30 27 20 14 7 15 21 22 24 23 24 25 26 26 25 23 20 18 16 13 11 8 5 4 2 7 7 4 1 3
5 14 23 27 28 33 31 21 25 19 25 24 20 22 14 11 15 12 13 9 17 25 25 24 25 27 27 25 24 21 19 18 16 13 10 8 4 3 4 7 3 2 7 6
9 9 18 23 26 28 24 25 23 21 18 16 15 14 12 2 9 6 9 17 18 26 25 27 26 27 26 25 23 21 19 17 15 13 9 7 4 4 4 6 3 4 11 5
15 7 16 23 20 21 29 25 25 19 24 17 13 15 5 2 5 5 11 21 29 27 26 28 28 27 26 24 22 20 19 16 14 12 9 7 4 6 2 1 1 5 10 10
6 6 11 19 17 20 20 28 24 21 11 19 17 16 7 6 8 11 11 21 30 29 28 29 29 27 26 24 21 19 18 16 14 13 11 7 6 4 2 4 3 8 12 11
3 7 15 11 7 15 8 24 31 26 17 19 19 9 6 7 8 5 17 29 28 29 30 30 29 27 25 23 21 19 17 16 15 13 10 7 5 5 4 5 5 8 15 12
2 8 18 21 13 15 21 29 29 29 24 22 19 18 13 12 11 13 15 23 26 28 29 29 28 28 26 23 21 19 18 16 15 13 12 7 4 7 6 6 8 8 13 12
4 4 16 14 15 10 23 31 26 29 26 27 21 14 11 12 17 16 15 19 24 27 28 28 27 26 25 24 21 20 19 17 15 14 12 8 9 10 7 7 7 8 9 14
15 5 8 8 6 7 18 23 22 22 25 26 17 6 18 8 8 11 17 21 22 26 27 27 26 26 25 23 22 21 20 17 16 14 13 10 9 8 9 8 6 9 8 7
14 11 6 3 8 4 15 15 21 23 18 23 11 3 11 16 11 23 9 23 24 26 26 26 26 25 25 22 22 21 20 18 17 16 14 10 11 8 10 9 7 8 9 8
11 6 4 4 6 5 26 6 10 9 10 17 14 10 3 0 28 22 22 16 20 23 25 26 25 26 24 24 24 23 21 19 17 16 15 14 14 6 8 8 7 7 8 9
8 7 4 4 5 5 2 18 27 10 10 18 15 13 13 12 1 9 17 15 11 5 25 25 26 26 26 25 25 23 22 20 19 17 16 15 10 9 9 7 7 9 7 6
7 3 9 6 3 7 15 26 28 8 2 10 14 15 15 12 8 11 12 13 13 4 28 25 27 27 27 26 26 24 22 21 19 18 17 15 14 13 13 6 7 10 9 7
3 3 2 3 2 4 20 13 10 2 8 16 16 15 13 11 10 12 12 12 12 6 19 27 27 27 28 28 27 24 23 21 20 19 18 17 15 12 10 10 12 11 8 5
2 6 4 5 4 8 23 13 15 17 17 20 19 16 14 11 11 10 9 10 11 9 3 24 26 27 28 28 28 25 24 22 22 21 20 19 17 16 11 13 13 9 8 7
8 9 5 7 11 16 14 21 23 18 18 15 20 15 14 11 10 8 6 7 8 10 11 19 27 28 29 29 27 25 24 23 23 23 23 21 20 17 14 13 12 11 11 9
4 8 9 2 5 8 17 18 17 14 11 13 14 14 12 8 8 9 6 6 8 10 13 14 27 28 29 29 28 27 25 25 25 25 25 23 22 18 18 17 12 11 12 11
6 6 6 5 12 9 14 20 17 16 9 9 11 13 12 9 8 10 11 6 5 8 11 14 25 29 28 29 29 28 27 27 28 27 26 24 23 22 19 20 18 11 13 11
Wind_Direction
224 218 223 220 221 240 237 240 246 253 252 247 254 261 266 276 274 261 269 267 268 262 265 260 263 279 251 250 247 246 228 211 215 216 201 200 200 211 218 219 228 233 239 244
230 219 225 232 228 234 242 251 253 262 265 260 261 257 259 248 252 261 264 243 255 280 289 282 276 239 246 250 249 235 220 214 207 206 196 195 199 220 211 225 235 243 241 260
224 237 225 235 234 235 238 238 245 256 265 266 268 269 270 268 270 265 258 270 258 259 278 281 274 227 235 235 234 209 191 195 199 193 178 196 195 199 200 203 219 252 253 258
248 243 242 227 237 231 242 233 243 249 251 257 254 269 256 262 264 257 255 255 259 252 257 255 246 202 204 208 195 185 187 196 177 181 186 192 189 205 229 233 217 228 254 279
243 247 234 239 238 228 245 244 248 247 251 261 254 259 267 269 268 269 276 267 261 253 261 257 192 183 174 180 174 179 184 162 173 176 197 190 182 213 211 224 244 268 266 271
252 252 254 247 243 248 247 240 251 258 257 247 243 242 264 258 263 270 270 262 249 256 241 238 157 156 155 161 166 172 164 160 186 170 183 183 203 182 181 218 237 268 290 286
249 244 252 250 253 234 237 236 234 236 235 241 244 241 255 265 266 272 273 267 269 260 252 144 148 150 154 162 165 167 163 178 173 172 186 181 195 210 218 245 261 280 288 292
277 269 230 235 239 236 225 232 228 223 226 241 240 252 260 254 258 254 282 233 241 237 131 137 150 154 156 162 165 166 167 168 167 175 171 176 182 160 215 250 287 269 274 264
321 287 259 226 244 239 234 221 235 249 240 245 255 243 236 243 245 241 239 234 235 140 139 148 153 157 161 164 167 168 165 166 169 169 170 170 179 181 269 301 300 250 303 128
295 288 277 271 218 241 236 228 223 230 232 246 236 240 253 186 225 226 196 222 201 143 143 153 156 160 161 165 166 167 166 170 169 171 171 162 185 191 237 287 285 171 126 143
250 222 274 282 239 216 227 227 221 241 225 236 246 264 295 83 171 174 195 196 189 146 152 155 158 160 161 164 166 166 167 170 170 171 165 178 178 162 240 311 144 152 140 159
299 278 265 266 271 246 233 226 230 218 218 228 247 238 68 134 229 175 260 180 151 151 156 157 159 161 162 165 166 168 171 170 171 168 164 173 180 198 251 143 137 137 139 143
336 261 261 258 267 258 255 224 233 237 237 219 232 250 143 148 208 216 181 149 146 150 156 159 160 164 164 167 166 169 171 170 168 169 171 173 189 199 149 150 128 138 148 142
292 258 262 260 309 337 312 240 230 222 207 227 220 192 198 180 189 177 137 130 142 154 157 159 162 166 168 167 168 168 169 171 169 168 172 174 185 140 133 143 140 147 152 143
173 277 285 259 248 285 298 286 240 224 198 217 226 226 219 165 173 112 121 141 148 156 162 160 168 166 168 168 169 167 170 169 168 164 171 164 174 148 135 123 137 138 152 145
230 261 298 275 246 279 300 285 277 219 201 216 239 176 44 97 112 128 147 156 161 161 163 164 170 167 169 169 169 169 171 167 167 162 166 162 142 169 142 143 161 149 159 170
266 289 322 255 231 301 281 243 249 245 209 209 204 194 130 210 98 120 148 159 162 160 164 168 172 169 171 171 173 171 170 167 166 160 158 154 160 174 154 157 155 156 157 160
263 287 294 10 76 278 278 237 249 223 197 205 102 317 136 173 106 45 55 172 169 166 167 167 172 169 171 173 173 170 168 167 166 161 161 160 152 152 159 170 183 166 167 163
226 248 281 238 191 315 301 351 294 206 136 357 177 205 168 130 99 48 33 34 165 169 167 168 171 169 172 174 174 172 168 169 167 164 164 170 152 134 150 166 165 146 142 172
194 222 237 310 260 231 85 329 320 39 82 17 5 47 46 351 109 41 19 14 20 161 164 165 169 170 173 175 174 173 170 172 172 167 165 161 159 135 145 144 147 153 161 170
217 221 249 271 237 294 332 327 318 173 78 33 31 32 26 27 17 345 5 4 347 317 164 167 170 171 174 176 176 176 173 176 174 167 166 162 156 147 164 152 137 141 129 128
317 236 273 232 195 251 313 346 52 334 67 41 43 31 21 12 353 352 358 342 328 324 158 160 167 172 175 179 180 179 177 176 174 167 166 165 165 160 165 140 134 131 114 131
327 3 316 359 75 18 320 21 37 30 48 33 21 19 15 10 5 355 334 312 304 300 208 166 171 173 177 182 183 181 180 178 175 171 168 171 159 177 162 154 150 142 146 134
342 7 327 346 8 357 16 352 19 29 33 19 5 14 8 360 351 338 297 277 266 260 243 183 172 175 176 184 185 182 181 180 177 172 172 173 161 181 160 163 152 145 165 173
287 334 323 123 22 340 356 359 358 357 20 12 3 350 352 351 350 337 307 270 248 237 228 209 176 179 181 184 185 182 183 181 180 174 177 177 172 182 165 163 180 177 170 193
323 344 0 340 353 318 329 332 352 346 358 350 353 337 338 356 357 337 334 319 277 238 232 215 183 182 183 186 188 185 185 184 182 177 179 181 181 180 175 179 179 173 181 182